sat.trackr.live / text

‹ back to catalog

STARLINK-2582

NORAD 48460 · 2021-040AJ

PAYLOAD ACTIVE UNKNOWN

§ Identity

Operator
Country
US
Launch date
2021-05-09
Launch site
AFETR
Launch vehicle
Mass (kg)
RCS (m²)

Purposes: comms

External: N2YO · Heavens-Above · Gunter

§ Orbital elements

Epoch: 2026-08-12T22:58:52.193856Z

Period
87.84 min
Inclination
53.0242°
Eccentricity
0.0011883
Mean motion
16.39397636 rev/d
Perigee alt
159.6 km
Apogee alt
175.2 km
Semi-major
6,545.5 km
B*
5.6707e-4
RAAN
69.4106°
Arg perigee
282.3132°
Mean anomaly
77.6584°
Rev number
29,253

§ Raw data

STARLINK-25821 48460U 21040AJ  26224.95754854  .07484398  12382-4  56707-3 0  99932 48460  53.0242  69.4106 0011883 282.3132  77.6584 16.39397636292539

JSON: /api/v1/satellites/48460 · /tle

For live sub-satellite position, see the globe view (requires WebGL).

§ Visibility from observer

Set your observer location to see the next 7 days of passes ≥ 10°. The values pass through the URL so the page stays shareable.

No JS? Fill the form by hand. The geolocation button needs JavaScript.